Regional Weather Roundup
Issued by NWS

Home | Current Version | Previous Version | Graphics & Text | Print | Product List | Glossary On
Versions: 1 2 3 4 5 6 7 8 9 10 11 12 13 14 15 16 17 18 19 20 21 22 23 24 25 26 27 28 29 30 31 32 33 34 35 36 37 38 39 40 41 42 43 44 45 46 47 48 49 50
000
ASUS43 KMKX 230613
RWRWI

WISCONSIN REGIONAL WEATHER ROUNDUP
NATIONAL WEATHER SERVICE MILWAUKEE/SULLIVAN WI
100 AM CDT SAT MAY 23 2015

NOTE: "FAIR" INDICATES FEW OR NO CLOUDS BELOW 12,000 FEET WITH NO
SIGNIFICANT WEATHER AND/OR OBSTRUCTIONS TO VISIBILITY.

WIZ001-002-006>008-014>016-023>028-230700-
NORTHWEST WISCONSIN

CITY           SKY/WX    TMP DP  RH WIND       PRES   REMARKS
SUPERIOR ARPT  CLEAR     36  35  95 SW3       30.19S
ASHLAND        CLEAR     47  36  65 W6        30.18S
6HR MIN TEMP:  46; 6HR MAX TEMP:  69;

HAYWARD        CLEAR     43  38  82 CALM      30.21S
6HR MIN TEMP:  43; 6HR MAX TEMP:  71;

SIREN          CLEAR     46  40  79 CALM      30.21R
CUMBERLAND     CLEAR     46  39  76 CALM      30.22S
RICE LAKE      CLEAR     46  42  86 CALM      30.23S
CHETEK         CLEAR     45  43  93 CALM      30.22S
LADYSMITH      CLEAR     46  42  86 CALM      30.23F
EAU CLAIRE     PTCLDY    47  40  76 CALM      30.22R
6HR MIN TEMP:  45; 6HR MAX TEMP:  71;

MENOMONIE      PTCLDY    52  44  73 CALM      30.22S
NEW RICHMOND   PTCLDY    53  40  60 CALM      30.21F
OSCEOLA        PTCLDY    47  42  80 CALM      30.23S
$$

WIZ003>005-009-010-017-018-230700-
NORTH CENTRAL WISCONSIN

CITY           SKY/WX    TMP DP  RH WIND       PRES   REMARKS
MANITOWISH WTR CLEAR     42  35  76 CALM      30.22S
ARBOR VITAE    CLEAR     42  36  80 CALM      30.23S
WOODRUFF       CLEAR     42  36  80 CALM      30.23S
RHINELANDER    CLEAR     39  35  86 CALM      30.24S
6HR MIN TEMP:  39; 6HR MAX TEMP:  65;

EAGLE RIVER    CLEAR     45  32  60 CALM      30.23S
LAND O LAKES   CLEAR     35  31  88 CALM      30.24R
PHILLIPS       CLEAR     41  38  89 CALM      30.22S
TOMAHAWK       CLEAR     39  35  86 CALM      30.24F
MEDFORD        CLEAR     42  38  84 CALM      30.23F
MERRILL        CLEAR     40  37  92 CALM      30.25S
$$

WIZ029-030-035-036-043>047-230700-
CENTRAL WISCONSIN

CITY           SKY/WX    TMP DP  RH WIND       PRES   REMARKS
WAUSAU         CLEAR     47  40  76 CALM      30.22S
6HR MIN TEMP:  47; 6HR MAX TEMP:  68; 6HR PCP: TRACE;

MOSINEE        CLEAR     50  39  66 CALM      30.25S
MARSHFIELD     PTCLDY    51  39  63 CALM      30.23F
6HR MIN TEMP:  50; 6HR MAX TEMP:  69;

STEVENS POINT  PTCLDY    42  37  83 CALM      30.25S
WAUPACA        PTCLDY    50  35  56 CALM      30.26S
WAUTOMA        NOT AVBL
WISC RAPIDS    PTCLDY    53  36  52 S7        30.25S
6HR MIN TEMP:  45; 6HR MAX TEMP:  70; 6HR PCP: TRACE;

CAMP DOUGLAS   NOT AVBL
$$

WIZ011>013-019>022-031-037>040-048>050-230700-
NORTHEAST WISCONSIN

CITY           SKY/WX    TMP DP  RH WIND       PRES   REMARKS
ANTIGO         CLEAR     43  36  74 CALM      30.25S
SHAWANO        CLEAR     47  38  69 CALM      30.26S
OCONTO         CLEAR     39  36  87 CALM      30.26S
STURGEON BAY   CLEAR     46  25  42 S7        30.29F
6HR MIN TEMP:  45; 6HR MAX TEMP:  52;

GREEN BAY      CLEAR     45  32  60 CALM      30.26S
6HR MIN TEMP:  45; 6HR MAX TEMP:  61;

MANITOWOC      NOT AVBL
APPLETON       PTCLDY    50  27  40 S9        30.26S
CLINTONVILLE   PTCLDY    46  34  61 CALM      30.26R
OSHKOSH        PTCLDY    48  28  46 S3        30.27R
6HR MIN TEMP:  45; 6HR MAX TEMP:  66;

$$

WIZ032>034-041-042-053>061-230700-
SOUTHWEST WISCONSIN

CITY           SKY/WX    TMP DP  RH WIND       PRES   REMARKS
LA CROSSE      MOCLDY    54  44  69 SE5       30.22S
6HR MIN TEMP:  54; 6HR MAX TEMP:  75;

SPARTA         PTCLDY    43  39  88 CALM      30.24S
VIROQUA        MOCLDY    58  37  44 SE6       30.23S
BOSCOBEL       PTCLDY    50  44  80 CALM      30.24R
6HR MIN TEMP:  50; 6HR MAX TEMP:  73;

PRAIRIE DU CHI MOCLDY    53  45  73 CALM      30.23R
PLATTEVILLE    MOCLDY    58  43  58 SE10      30.24S
$$

WIZ056-057-062-063-064-067-068-230700-
SOUTH CENTRAL WISCONSIN

CITY           SKY/WX    TMP DP  RH WIND       PRES   REMARKS
REEDSBURG      MOCLDY    53  43  69 CALM      30.24S
BARABOO/DELLS  MOCLDY    53  37  56 S7        30.25S
LONE ROCK      NOT AVBL
MINERAL POINT  CLOUDY    55  39  54 SE9       30.25S
MADISON        CLOUDY    55  31  39 S8        30.27S
6HR MIN TEMP:  55; 6HR MAX TEMP:  70;

MIDDLETON      CLOUDY    57  27  30 SE7       30.27S
WATERTOWN      CLOUDY    48  29  48 CALM      30.27F
MONROE         CLOUDY    54  36  50 SE7       30.26S
JANESVILLE     MOCLDY    52  32  46 SE3       30.28S
$$

WIZ051-052-058>065-066-070>072-230700-
SOUTHEAST WISCONSIN

CITY           SKY/WX    TMP DP  RH WIND       PRES   REMARKS
MILWAUKEE      CLOUDY    49  29  46 S5        30.28F
6HR MIN TEMP:  47; 6HR MAX TEMP:  50;

WAUKESHA       CLOUDY    46  28  49 S5        30.30S
MILWAUKEE/TIMM MOCLDY    46  28  49 S3        30.29S
RACINE         CLOUDY    48  32  53 S3        30.30S
6HR MIN TEMP:  46; 6HR MAX TEMP:  52;

BURLINGTON     MOCLDY    44  32  63 CALM      30.29S
KENOSHA        MOCLDY    46  32  58 S5        30.29S
6HR MIN TEMP:  46; 6HR MAX TEMP:  53;

FOND DU LAC    MOCLDY    45  28  51 S5        30.27S
6HR MIN TEMP:  45; 6HR MAX TEMP:  62;

SHEBOYGAN      PTCLDY    40  30  67 SW5       30.27S
6HR MIN TEMP:  40; 6HR MAX TEMP:  53;

WEST BEND      MOCLDY    46  27  46 S3        30.28S
JUNEAU         MOCLDY    47  30  50 SE3       30.29S
$$

LSZ147-162-230700-
LAKE SUPERIOR

STATION/POSITION TIME  TEMP    WIND        PRES    WAVE
                       AIR SEA DIR/SP/G            HT/PER
                 (UTC) (F)     (DEG/KT/KT) (MB)    (FT/S)
W MID LAKE BUOY  0450   38 36  350/  4/  4   N/A     0
DEVILS ISLAND    0500   42     230/  8/  8   N/A
PORT WING        0400   41     190/  4/  5   N/A
SAXON HARBOR     0500   54     200/  5/  8   N/A
$$

LMZ867-665-643>646-230700-
LAKE MICHIGAN

STATION/POSITION TIME  TEMP    WIND        PRES    WAVE
                       AIR SEA DIR/SP/G            HT/PER
                 (UTC) (F)     (DEG/KT/KT) (MB)    (FT/S)
CHAMBERS ISLAND  0500   40     120/  2/  2   N/A
N MID LAKE BUOY  0450   40 36  220/  6/  6   N/A     0
NORTHPORT PIER   0500   46     200/  3/  6   N/A
SISTER BAY       0502   45        CALM       N/A
KEWAUNEE LAKESHO 0500   47     180/  5/  7   N/A
SHEBOYGAN LAKESH 0500   49     220/  9/ 10   N/A
PORT WASHINGTON  0540   49     260/  5/  6   N/A
ATWATER BUOY     0500   50 45  200/  6/  8   N/A
MILWAUKEE LAKESH 0500   52     210/  6/  8   N/A
S MID LAKE BUOY  0450   43 38  160/  8/  8   N/A     0
KENOSHA   LAKESH 0500   50     190/  5/  8   N/A
$$

TC  - TEMPERATURE IN CELSIUS
VSB - VISIBILITY IN STATUTE MILES
WCI - WIND CHILL INDEX
HX  - HEAT INDEX



USA.gov is the U.S. government's official web portal to all federal, state and local government web resources and services.